TimeEST,TemperatureF,Dew PointF,Humidity,Sea Level PressureIn,VisibilityMPH,Wind Direction,Wind SpeedMPH,Gust SpeedMPH,PrecipitationIn,Events,Conditions,WindDirDegrees,DateUTC
12:56 AM,44.1,42.1,93,30.15,5.0,WSW,12.7,-,0.13,Rain,Rain,240,2012-11-13 05:56:00
1:56 AM,42.1,39.0,89,30.19,4.0,WSW,25.3,38.0,0.08,Rain,Rain,250,2012-11-13 06:56:00
2:18 AM,41.0,37.4,87,30.19,10.0,SW,12.7,21.9,0.02,Rain,Light Rain,220,2012-11-13 07:18:00
2:44 AM,42.8,39.2,87,30.18,8.0,West,18.4,23.0,0.03,Rain,Light Rain,260,2012-11-13 07:44:00
2:56 AM,42.1,39.0,89,30.22,8.0,West,18.4,27.6,0.03,Rain,Light Rain,260,2012-11-13 07:56:00
3:51 AM,41.0,35.6,81,30.20,10.0,WSW,9.2,-,0.01,,Overcast,250,2012-11-13 08:51:00
3:56 AM,41.0,36.0,82,30.19,10.0,WSW,8.1,-,0.01,,Overcast,250,2012-11-13 08:56:00
4:56 AM,41.0,34.0,76,30.23,10.0,West,11.5,-,N/A,,Overcast,270,2012-11-13 09:56:00
5:56 AM,39.9,28.9,65,30.25,10.0,West,16.1,21.9,N/A,,Overcast,280,2012-11-13 10:56:00
6:56 AM,39.9,27.0,60,30.27,10.0,West,11.5,21.9,N/A,,Overcast,280,2012-11-13 11:56:00
7:56 AM,39.9,27.0,60,30.30,10.0,West,10.4,-,N/A,,Overcast,260,2012-11-13 12:56:00
8:56 AM,39.9,28.0,63,30.34,10.0,WNW,17.3,23.0,N/A,,Overcast,290,2012-11-13 13:56:00
9:40 AM,37.4,30.2,75,30.35,10.0,West,13.8,-,0.00,Rain,Light Rain,280,2012-11-13 14:40:00
9:51 AM,37.4,30.2,75,30.35,10.0,West,10.4,-,0.00,,Overcast,260,2012-11-13 14:51:00
9:56 AM,37.9,30.0,73,30.36,10.0,West,12.7,-,0.00,,Overcast,260,2012-11-13 14:56:00
10:56 AM,39.2,26.6,61,30.37,10.0,WNW,13.8,-,N/A,,Overcast,300,2012-11-13 15:56:00
11:56 AM,39.9,25.0,55,30.36,10.0,WNW,13.8,-,N/A,,Overcast,290,2012-11-13 16:56:00
12:56 PM,41.0,24.1,51,30.36,10.0,West,12.7,19.6,N/A,,Overcast,270,2012-11-13 17:56:00
1:56 PM,42.1,23.0,47,30.37,10.0,WSW,9.2,-,N/A,,Mostly Cloudy,250,2012-11-13 18:56:00
2:56 PM,39.9,25.0,55,30.39,10.0,WNW,6.9,-,N/A,,Overcast,290,2012-11-13 19:56:00
3:56 PM,39.9,25.0,55,30.40,10.0,WNW,6.9,-,N/A,,Overcast,290,2012-11-13 20:56:00
4:56 PM,39.0,25.0,57,30.42,10.0,WNW,6.9,-,N/A,,Overcast,300,2012-11-13 21:56:00
5:56 PM,37.0,26.1,65,30.44,10.0,NW,5.8,-,N/A,,Overcast,310,2012-11-13 22:56:00
6:56 PM,34.0,25.0,70,30.47,10.0,WNW,3.5,-,N/A,,Mostly Cloudy,300,2012-11-13 23:56:00
7:56 PM,28.9,25.0,85,30.49,10.0,Calm,Calm,-,N/A,,Clear,0,2012-11-14 00:56:00
8:56 PM,27.0,24.1,89,30.51,10.0,Calm,Calm,-,N/A,,Clear,0,2012-11-14 01:56:00
9:56 PM,25.0,23.0,92,30.52,10.0,Calm,Calm,-,N/A,,Clear,0,2012-11-14 02:56:00
10:56 PM,25.0,23.0,92,30.53,10.0,Calm,Calm,-,N/A,,Clear,0,2012-11-14 03:56:00
11:56 PM,23.0,21.0,92,30.54,10.0,Calm,Calm,-,N/A,,Clear,0,2012-11-14 04:56:00